FW7043 Weather Reports


Display with metric or nautical units.
time (UTC)temp
F
wind
direction
speed
MPH
gust
MPH
rain 1hr
in
rain 24hr
in
rain mn
in
humidity
%
barometer
mb
20260505171106 79 172 4.0 7.0 0.00 0.00 0.00 45 1018.0
20260505170603 79 253 4.0 6.0 0.00 0.00 0.00 46 1017.8
20260505170059 79 280 4.0 6.0 0.00 0.00 0.00 45 1018.1
20260505165554 79 241 4.0 5.0 0.00 0.00 0.00 47 1018.0
20260505165050 78 237 4.0 6.0 0.00 0.00 0.00 48 1018.2
20260505164546 78 233 3.0 3.0 0.00 0.00 0.00 48 1018.1
20260505164038 78 182 8.0 10.0 0.00 0.00 0.00 47 1018.2
20260505163537 78 195 3.0 5.0 0.00 0.00 0.00 48 1018.2
20260505163033 77 171 6.0 8.0 0.00 0.00 0.00 46 1018.0
20260505162526 77 169 4.0 5.0 0.00 0.00 0.00 48 1018.2
20260505162023 77 283 3.0 5.0 0.00 0.00 0.00 46 1018.2
20260505161520 77 272 4.0 6.0 0.00 0.00 0.00 48 1018.2
20260505161017 77 190 3.0 5.0 0.00 0.00 0.00 50 1018.2
20260505160515 77 233 3.0 6.0 0.00 0.00 0.00 50 1018.4
20260505152951 75 214 5.0 6.0 0.00 0.00 0.00 53 1018.3
20260505152449 75 241 3.0 3.0 0.00 0.00 0.00 54 1018.5
20260505151943 74 281 3.0 3.0 0.00 0.00 0.00 55 1018.3
20260505151439 75 241 6.0 8.0 0.00 0.00 0.00 54 1018.2
20260505150937 74 221 2.0 5.0 0.00 0.00 0.00 55 1018.6
20260505150434 73 232 5.0 7.0 0.00 0.00 0.00 56 1018.3
20260505140404 71 266 3.0 3.0 0.00 0.00 0.00 61 1018.7
20260505124817 67 257 6.0 8.0 0.00 0.00 0.00 65 1018.8
20260505124314 67 226 2.0 2.0 0.00 0.00 0.00 66 1018.9
20260505123810 66 230 5.0 6.0 0.00 0.00 0.00 65 1018.6
20260505123307 66 204 3.0 5.0 0.00 0.00 0.00 67 1018.9
20260505122803 66 243 3.0 3.0 0.00 0.00 0.00 67 1018.6
20260505122301 65 228 3.0 3.0 0.00 0.00 0.00 68 1018.6
20260505121757 65 242 4.0 5.0 0.00 0.00 0.00 69 1018.7
20260505121254 64 249 1.0 2.0 0.00 0.00 0.00 70 1018.5
20260505120750 63 266 1.0 2.0 0.00 0.00 0.00 72 1018.6
20260505120246 63 196 2.0 3.0 0.00 0.00 0.00 73 1018.7
20260505115745 62 213 1.0 2.0 0.00 0.00 0.00 75 1018.5
20260505115243 62 196 2.0 2.0 0.00 0.00 0.00 75 1018.5
20260505114740 62 183 3.0 3.0 0.00 0.00 0.00 76 1018.7
20260505114236 61 242 0.0 1.0 0.00 0.00 0.00 77 1018.4
20260505113733 60 246 2.0 2.0 0.00 0.00 0.00 78 1018.5
20260505113229 60 268 2.0 3.0 0.00 0.00 0.00 79 1018.6
20260505112725 59 255 0.0 1.0 0.00 0.00 0.00 80 1018.6
20260505112223 59 300 3.0 3.0 0.00 0.00 0.00 80 1018.5
20260505111723 59 172 4.0 5.0 0.00 0.00 0.00 80 1018.5
20260505111219 59 260 1.0 1.0 0.00 0.00 0.00 81 1018.2
20260505110715 59 204 0.0 1.0 0.00 0.00 0.00 81 1018.5
20260505110213 59 207 3.0 5.0 0.00 0.00 0.00 81 1018.4
20260505102148 58 213 3.0 5.0 0.00 0.00 0.00 80 1018.0
20260505101647 58 260 2.0 3.0 0.00 0.00 0.00 80 1017.7
20260505101143 58 262 3.0 3.0 0.00 0.00 0.00 80 1017.8
20260505100639 58 274 3.0 3.0 0.00 0.00 0.00 80 1017.7
20260505100136 59 256 2.0 2.0 0.00 0.00 0.00 79 1017.6
20260505095632 59 306 3.0 5.0 0.00 0.00 0.00 79 1017.6
20260505095129 59 231 1.0 1.0 0.00 0.00 0.00 79 1017.8
20260505094626 59 238 2.0 2.0 0.00 0.00 0.00 79 1017.5
20260505094122 59 274 1.0 1.0 0.00 0.00 0.00 78 1017.3
20260505093618 59 260 1.0 2.0 0.00 0.00 0.00 78 1017.4
20260505093115 59 257 0.0 1.0 0.00 0.00 0.00 77 1017.3
20260505092613 59 283 1.0 2.0 0.00 0.00 0.00 77 1017.6
20260505092112 60 233 3.0 3.0 0.00 0.00 0.00 77 1017.1
20260505091608 60 216 1.0 2.0 0.00 0.00 0.00 76 1017.1
20260505091106 60 229 3.0 5.0 0.00 0.00 0.00 76 1017.0
20260505090604 60 226 1.0 2.0 0.00 0.00 0.00 76 1017.1
20260505085559 60 273 1.0 2.0 0.00 0.00 0.00 75 1017.1
20260505085057 60 268 2.0 2.0 0.00 0.00 0.00 75 1017.3
20260505084555 60 204 3.0 3.0 0.00 0.00 0.00 75 1017.2
20260505084052 60 259 0.0 0.0 0.00 0.00 0.00 75 1017.3
20260505083549 61 213 3.0 5.0 0.00 0.00 0.00 74 1017.3
20260505083046 61 292 2.0 2.0 0.00 0.00 0.00 74 1017.2
20260505082542 61 244 2.0 2.0 0.00 0.00 0.00 74 1017.1
20260505082039 61 220 3.0 3.0 0.00 0.00 0.00 73 1017.0
20260505081535 61 247 2.0 2.0 0.00 0.00 0.00 73 1017.2
20260505081032 61 250 3.0 3.0 0.00 0.00 0.00 73 1017.1
20260505080528 61 279 1.0 2.0 0.00 0.00 0.00 73 1017.1
20260505080026 61 257 1.0 2.0 0.00 0.00 0.00 73 1017.2
20260505075521 61 206 0.0 1.0 0.00 0.00 0.00 72 1016.9
20260505075018 61 201 4.0 6.0 0.00 0.00 0.00 72 1016.9
20260505074515 62 241 1.0 2.0 0.00 0.00 0.00 72 1017.0
20260505074013 62 242 2.0 2.0 0.00 0.00 0.00 72 1017.1
20260505073510 62 240 2.0 2.0 0.00 0.00 0.00 71 1016.9
20260505073008 62 200 1.0 1.0 0.00 0.00 0.00 71 1017.0
20260505072504 62 272 1.0 2.0 0.00 0.00 0.00 71 1016.8
20260505071959 62 251 3.0 3.0 0.00 0.00 0.00 70 1016.8
20260505071455 62 266 3.0 3.0 0.00 0.00 0.00 70 1016.7
20260505070954 62 225 4.0 6.0 0.00 0.00 0.00 70 1016.8
20260505070450 62 258 1.0 2.0 0.00 0.00 0.00 69 1016.7
20260505065946 62 239 3.0 5.0 0.00 0.00 0.00 69 1016.5
20260505065443 63 246 5.0 6.0 0.00 0.00 0.00 69 1016.7
20260505064939 63 254 2.0 2.0 0.00 0.00 0.00 68 1016.9
20260505064436 63 247 1.0 1.0 0.00 0.00 0.00 68 1016.7
20260505063935 63 194 3.0 3.0 0.00 0.00 0.00 68 1016.7
20260505063431 63 259 2.0 3.0 0.00 0.00 0.00 68 1016.8
20260505062927 63 254 4.0 5.0 0.00 0.00 0.00 67 1016.7
20260505062425 63 253 2.0 3.0 0.00 0.00 0.00 67 1016.8
20260505061921 63 228 3.0 3.0 0.00 0.00 0.00 66 1016.8
20260505061420 63 213 3.0 5.0 0.00 0.00 0.00 67 1016.8
20260505060917 64 259 2.0 2.0 0.00 0.00 0.00 66 1016.8
20260505060414 64 229 3.0 5.0 0.00 0.00 0.00 66 1016.9
20260505055910 64 199 0.0 1.0 0.00 0.00 0.00 66 1016.8
20260505055406 64 212 1.0 2.0 0.00 0.00 0.00 66 1016.9
20260505054903 64 201 5.0 7.0 0.00 0.00 0.00 66 1017.1
20260505054400 64 204 3.0 6.0 0.00 0.00 0.00 66 1017.3
20260505053858 64 223 2.0 2.0 0.00 0.00 0.00 66 1017.0
20260505053355 64 209 2.0 3.0 0.00 0.00 0.00 66 1017.0
20260505052852 64 269 3.0 3.0 0.00 0.00 0.00 65 1016.9
20260505052349 64 219 2.0 3.0 0.00 0.00 0.00 65 1017.2
20260505051846 64 254 7.0 9.0 0.00 0.00 0.00 65 1017.3
20260505051343 65 209 3.0 3.0 0.00 0.00 0.00 65 1017.3
20260505050841 65 152 4.0 6.0 0.00 0.00 0.00 65 1016.9
20260505050340 65 273 3.0 6.0 0.00 0.00 0.00 65 1017.2
20260505041307 65 207 1.0 3.0 0.00 0.00 0.00 65 1017.0
20260505040804 65 186 3.0 3.0 0.00 0.00 0.00 65 1017.1
20260505040301 65 292 2.0 2.0 0.00 0.00 0.00 65 1017.0
20260505035758 65 202 4.0 5.0 0.00 0.00 0.00 65 1016.7
20260505035253 65 236 5.0 7.0 0.00 0.00 0.00 65 1016.9
20260505034751 66 270 4.0 6.0 0.00 0.00 0.00 64 1017.0
20260505034248 65 266 4.0 6.0 0.00 0.00 0.00 64 1016.9
20260505033744 65 254 4.0 5.0 0.00 0.00 0.00 65 1016.8
20260505033242 66 114 2.0 3.0 0.00 0.00 0.00 65 1016.8
20260505032740 66 238 3.0 3.0 0.00 0.00 0.00 64 1017.0
20260505032235 66 208 3.0 6.0 0.00 0.00 0.00 65 1016.9
20260505031733 66 254 2.0 3.0 0.00 0.00 0.00 65 1016.9
20260505031229 66 163 4.0 5.0 0.00 0.00 0.00 65 1016.8
20260505030726 66 266 3.0 5.0 0.00 0.00 0.00 65 1016.8
20260505030222 66 265 5.0 6.0 0.00 0.00 0.00 65 1016.9
20260505025718 66 239 3.0 3.0 0.00 0.00 0.00 65 1016.9
20260505025217 66 251 5.0 8.0 0.00 0.00 0.00 65 1017.0
20260505024714 66 235 4.0 5.0 0.00 0.00 0.00 65 1016.8
20260505024211 66 237 2.0 3.0 0.00 0.00 0.00 65 1016.7
20260505023709 66 218 4.0 5.0 0.00 0.00 0.00 66 1016.9
20260505023206 66 207 5.0 6.0 0.00 0.00 0.00 66 1016.6
20260505022703 66 265 5.0 7.0 0.00 0.00 0.00 66 1016.7
20260505022200 66 235 3.0 5.0 0.00 0.00 0.00 66 1016.5
20260505021657 67 239 2.0 2.0 0.00 0.00 0.00 66 1016.9
20260505021154 67 210 4.0 5.0 0.00 0.00 0.00 66 1016.7
20260505020649 67 215 3.0 5.0 0.00 0.00 0.00 66 1017.0
20260505020145 67 239 2.0 3.0 0.00 0.00 0.00 66 1017.1
20260505015643 67 213 2.0 2.0 0.00 0.00 0.00 65 1016.7
20260505015139 67 227 4.0 6.0 0.00 0.00 0.00 65 1016.8
20260505014636 67 237 2.0 2.0 0.00 0.00 0.00 65 1016.8
20260505014133 67 219 3.0 3.0 0.00 0.00 0.00 65 1016.8
20260505013631 67 191 4.0 5.0 0.00 0.00 0.00 65 1016.9
20260505013127 67 265 0.0 0.0 0.00 0.00 0.00 65 1016.6
20260505012626 67 163 3.0 6.0 0.00 0.00 0.00 65 1016.5
20260505012122 67 234 3.0 3.0 0.00 0.00 0.00 65 1016.6
20260505011618 67 206 1.0 2.0 0.00 0.00 0.00 65 1016.6
20260505011115 68 202 2.0 3.0 0.00 0.00 0.00 65 1016.4
20260505010611 68 204 2.0 3.0 0.00 0.00 0.00 65 1016.3
20260505010108 67 254 3.0 5.0 0.00 0.00 0.00 65 1016.2
20260505005604 68 218 2.0 3.0 0.00 0.00 0.00 65 1016.3
20260505005101 68 168 4.0 5.0 0.00 0.00 0.00 65 1016.1
20260505004558 68 195 4.0 6.0 0.00 0.00 0.00 65 1016.0
20260505004055 68 188 3.0 3.0 0.00 0.00 0.00 65 1016.0
20260505003552 68 195 4.0 6.0 0.00 0.00 0.00 64 1016.0
20260505003050 68 204 1.0 2.0 0.00 0.00 0.00 64 1015.9
20260505002550 68 189 3.0 3.0 0.00 0.00 0.00 63 1015.8
20260505002049 69 227 3.0 3.0 0.00 0.00 0.00 63 1015.8
20260505001546 69 227 3.0 3.0 0.00 0.00 0.00 62 1015.8
20260505001043 69 194 2.0 5.0 0.00 0.00 0.00 62 1015.7
20260505000540 69 247 1.0 2.0 0.00 0.00 0.00 62 1015.6
20260505000038 69 187 5.0 7.0 0.00 0.00 0.00 62 1015.6
20260504235534 69 211 6.0 9.0 0.00 0.00 0.00 61 1015.7
20260504235031 69 206 4.0 8.0 0.00 0.00 0.00 62 1015.5
20260504234528 70 346 1.0 3.0 0.00 0.00 0.00 62 1015.5
20260504234025 70 201 1.0 2.0 0.00 0.00 0.00 61 1015.4
20260504233520 70 171 5.0 6.0 0.00 0.00 0.00 61 1015.1
20260504233018 70 164 5.0 7.0 0.00 0.00 0.00 60 1015.3
20260504232514 71 175 5.0 7.0 0.00 0.00 0.00 60 1015.2
20260504232012 71 218 2.0 2.0 0.00 0.00 0.00 60 1015.1
20260504231508 71 151 5.0 7.0 0.00 0.00 0.00 59 1014.9
20260504231005 71 183 2.0 3.0 0.00 0.00 0.00 58 1015.0
20260504230501 72 267 3.0 3.0 0.00 0.00 0.00 58 1015.0
20260504230000 72 173 8.0 10.0 0.00 0.00 0.00 57 1015.0
20260504225456 73 215 4.0 6.0 0.00 0.00 0.00 57 1014.9
20260504224954 73 183 5.0 7.0 0.00 0.00 0.00 57 1015.0
20260504224450 75 181 3.0 5.0 0.00 0.00 0.00 54 1014.8
20260504223947 76 252 2.0 3.0 0.00 0.00 0.00 39 1014.6
20260504223443 76 223 3.0 5.0 0.00 0.00 0.00 38 1014.9
20260504222939 76 241 3.0 5.0 0.00 0.00 0.00 39 1014.7
20260504222437 77 183 1.0 3.0 0.00 0.00 0.00 38 1014.8
20260504221934 77 259 6.0 9.0 0.00 0.00 0.00 38 1014.7
20260504221431 77 259 5.0 7.0 0.00 0.00 0.00 38 1014.7
20260504220928 77 164 7.0 9.0 0.00 0.00 0.00 38 1014.7
20260504220425 77 274 3.0 3.0 0.00 0.00 0.00 38 1014.9
20260504215922 77 251 6.0 8.0 0.00 0.00 0.00 38 1014.5
20260504215419 77 285 6.0 8.0 0.00 0.00 0.00 37 1014.9
20260504214915 77 306 5.0 7.0 0.00 0.00 0.00 38 1014.9
20260504214412 77 242 3.0 5.0 0.00 0.00 0.00 37 1014.7
20260504213908 77 256 4.0 5.0 0.00 0.00 0.00 37 1014.8
20260504213404 77 174 3.0 5.0 0.00 0.00 0.00 37 1014.7
20260504212902 78 229 4.0 6.0 0.00 0.00 0.00 36 1014.9
20260504212357 77 231 5.0 7.0 0.00 0.00 0.00 37 1015.1
20260504211855 77 212 3.0 5.0 0.00 0.00 0.00 38 1014.8
20260504211351 77 202 3.0 5.0 0.00 0.00 0.00 38 1014.9
20260504210849 77 180 3.0 6.0 0.00 0.00 0.00 38 1014.9
20260504210346 78 253 3.0 5.0 0.00 0.00 0.00 36 1015.0
20260504205843 78 217 5.0 6.0 0.00 0.00 0.00 37 1015.1
20260504205341 78 225 2.0 3.0 0.00 0.00 0.00 37 1014.7
20260504204839 77 289 4.0 5.0 0.00 0.00 0.00 37 1015.1
20260504204337 78 248 6.0 9.0 0.00 0.00 0.00 37 1015.2
20260504203836 78 218 3.0 6.0 0.00 0.00 0.00 36 1014.9
20260504203332 79 282 0.0 1.0 0.00 0.00 0.00 35 1014.7
20260504202828 78 264 2.0 3.0 0.00 0.00 0.00 34 1015.0
20260504202326 78 254 1.0 6.0 0.00 0.00 0.00 35 1014.9
20260504201822 78 204 5.0 7.0 0.00 0.00 0.00 36 1014.9
20260504201320 78 241 1.0 5.0 0.00 0.00 0.00 36 1015.0
20260504200817 78 167 5.0 7.0 0.00 0.00 0.00 34 1015.0
20260504200313 78 159 6.0 9.0 0.00 0.00 0.00 35 1015.1
20260504195809 78 268 2.0 2.0 0.00 0.00 0.00 38 1015.3
20260504195305 78 243 5.0 7.0 0.00 0.00 0.00 36 1015.3
20260504194803 77 211 3.0 3.0 0.00 0.00 0.00 39 1015.2
20260504194259 77 222 4.0 5.0 0.00 0.00 0.00 37 1015.4
20260504193755 77 247 7.0 8.0 0.00 0.00 0.00 36 1015.4
20260504193252 77 259 4.0 7.0 0.00 0.00 0.00 38 1015.6
20260504192751 77 207 3.0 3.0 0.00 0.00 0.00 38 1015.6
20260504192248 77 263 4.0 6.0 0.00 0.00 0.00 37 1015.7
20260504191747 77 216 4.0 6.0 0.00 0.00 0.00 37 1015.8
20260504191243 77 236 5.0 8.0 0.00 0.00 0.00 37 1015.6
20260504190739 77 221 5.0 7.0 0.00 0.00 0.00 39 1015.9
20260504190236 76 164 7.0 11.0 0.00 0.00 0.00 40 1015.7
20260504185732 77 193 3.0 5.0 0.00 0.00 0.00 39 1016.0
20260504185229 76 256 5.0 6.0 0.00 0.00 0.00 39 1016.0
20260504184725 77 196 1.0 2.0 0.00 0.00 0.00 40 1016.1
20260504184221 75 241 3.0 6.0 0.00 0.00 0.00 40 1016.1
20260504183717 76 237 6.0 9.0 0.00 0.00 0.00 39 1016.3
20260504183214 75 247 3.0 7.0 0.00 0.00 0.00 39 1016.3
20260504182712 75 265 4.0 6.0 0.00 0.00 0.00 40 1016.4
20260504182209 75 265 0.0 1.0 0.00 0.00 0.00 41 1016.6
20260504181707 75 253 4.0 6.0 0.00 0.00 0.00 41 1016.5
20260504181204 74 259 4.0 6.0 0.00 0.00 0.00 41 1016.6
20260504180703 74 248 3.0 3.0 0.00 0.00 0.00 43 1016.8
20260504180201 75 216 4.0 5.0 0.00 0.00 0.00 42 1016.7
20260504175658 74 258 0.0 0.0 0.00 0.00 0.00 43 1016.8
20260504175155 74 168 3.0 3.0 0.00 0.00 0.00 43 1016.6
20260504174653 74 288 1.0 2.0 0.00 0.00 0.00 44 1016.8
20260504174150 75 226 4.0 5.0 0.00 0.00 0.00 42 1016.8
20260504173646 74 262 7.0 8.0 0.00 0.00 0.00 42 1016.9
20260504173144 74 244 7.0 10.0 0.00 0.00 0.00 42 1016.8
20260504172640 74 197 3.0 3.0 0.00 0.00 0.00 43 1017.2
20260504172137 73 201 4.0 7.0 0.00 0.00 0.00 43 1016.9
20260504171633 73 229 3.0 5.0 0.00 0.00 0.00 44 1017.0